Location: Newark
(53.0000°N, 1.0000°W)
Time: 22:44:09
(UTC+00:00)

M-CUBED/EXP-1 PRIME - Visible Passes

Search period start: 23 January 2020 00:00
Search period end: 02 February 2020 00:00
Orbit: 429 x 668 km, 101.7° (Epoch: 23 January)

Date Brightness Start Highest point End Pass type
(mag) Time Alt. Az. Time Alt. Az. Time Alt. Az.
23 Jan ? 06:00:25 10° ENE 06:01:35 11° E 06:02:44 10° ESE visible
23 Jan ? 18:23:49 10° SSW 18:26:56 21° W 18:29:55 10° NW visible
24 Jan ? 18:18:48 10° SSW 18:22:05 23° W 18:25:14 10° NW visible
25 Jan ? 18:13:47 10° SSW 18:17:15 27° WSW 18:20:31 10° NW visible
26 Jan ? 18:08:50 10° SSW 18:12:24 31° WSW 18:15:47 10° NW visible
27 Jan ? 07:13:45 10° NNE 07:17:02 58° ESE 07:20:14 10° S visible
27 Jan ? 18:03:54 10° S 18:07:34 35° WSW 18:11:01 10° NW visible
28 Jan ? 07:08:58 10° NNE 07:12:11 47° ESE 07:15:19 10° S visible
28 Jan ? 17:58:59 10° S 18:02:44 41° WSW 18:06:14 10° NW visible
29 Jan ? 07:04:12 10° NE 07:07:19 39° ESE 07:10:23 10° S visible
29 Jan ? 17:54:07 10° S 17:57:54 48° WSW 18:01:26 10° NNW visible
30 Jan ? 06:59:27 10° NE 07:02:27 33° ESE 07:05:25 10° S visible
30 Jan ? 17:49:15 10° S 17:53:04 56° WSW 17:56:37 10° NNW visible
31 Jan ? 06:54:42 10° NE 06:57:34 28° ESE 07:00:25 10° SSE visible
31 Jan ? 17:44:25 10° SSE 17:48:14 66° WSW 17:51:48 10° NNW visible
01 Feb ? 06:49:59 10° NE 06:52:42 23° ESE 06:55:23 10° SSE visible
01 Feb ? 17:39:36 10° SSE 17:43:24 78° WSW 17:46:57 10° NNW visible
